LEMUR 2 ESPERANZA

导读

LEMUR 2 ESPERANZA是LEMUR-2系列纳米卫星星座的一员,由美国Spire Global公司主导研发,于2025年3月26日发射。作为3U立方星,该卫星运行在近地轨道,主要承担无线电掩星探测、全球船舶跟踪任务,同时也可参与气象监测与空间天气研究,为地球观测与商业航运动态提供数据支撑。

基本信息
目录编号:
63352
目录名称:
LEMUR 2 ESPERANZA
国际标识:
2025-061B
轨道中心:
EARTH
卫星名称:
LEMUR 2 ESPERANZA
卫星全名:
LEMUR 2 ESPERANZA
卫星状态:
在轨 (已飞行528 天)
发射日期:
2025-03-26 UTC
国别 :
美国 (US)
星等 :
--
轨道信息
数据来源 国际轨道数据
星历时间: 2026-09-05T12:17:38+0800
5小时前
查看轨道信息
半长轴: 6901.954km
偏心率: 0.0018025
轨道倾角: 97.573°
近地点辐角 354.525°
升交点赤经 223.133°
平近点角 5.578°
近地点: 511.376km
远地点: 536.258km
周期: 95.108分钟
每日圈数: 15.140657
详细信息
使用方式:
暂无
2D轨道图
3D轨道图
轨道高度分析图
轨道倾角分析图
轨道综合分析图
查看轨道综合分析图
交会数据列表
事件ID 空间交会对象 最接近时刻(TCA) 交会距离 交会风险概率(CRP) 交会风险指数(CRI) 操作
CDM_260906-092706-335206-961421
2026-09-06T
09:27:10+0000
2.529 km
极远距离
1.667128E-6 低风险 0.39
CDM_260907-032106-335206-775122
OBJECT F (67751)
2026-09-07T
03:21:43+0000
2.637 km
极远距离
1.588321E-6 低风险 0.39